Theta_e
316 315 316 317 318 319 319 319 319 319 319 319 319 320 321 322 322 323 324 324 324 324 324 325 325 325 325 325 325 326 326 326 326 326 326 327 327 327 327 328 328 328 328 328 328 328 328 328 329 329 329 330 330 330 331 331 331 331 331 330 330 330 330 330 331 332 332 332 331 330 330 331 330 330 328 327 326 325 324 323 321 320 319 318 317 316
313 313 313 314 316 318 317 317 317 318 318 318 318 318 319 319 320 321 322 322 322 323 323 323 323 324 324 324 324 325 325 325 326 326 326 326 326 327 327 327 327 327 327 327 327 327 328 328 328 328 328 329 329 329 329 329 329 329 328 328 328 328 329 329 330 331 331 331 331 330 330 331 331 330 328 327 325 324 323 321 320 319 318 317 316 315
311 311 311 312 314 316 316 315 315 316 316 316 316 316 316 317 318 318 319 319 320 320 321 321 321 321 322 322 322 323 324 324 325 325 325 325 326 326 326 326 326 326 326 327 327 327 326 326 326 327 327 327 328 328 328 327 327 326 326 326 326 327 327 328 329 330 330 330 330 329 329 330 330 329 328 326 324 322 321 320 319 317 317 316 315 314
309 309 310 310 312 313 313 313 313 313 313 313 313 313 314 315 315 316 316 317 317 317 318 318 318 319 319 319 320 320 321 322 323 323 324 324 324 325 325 325 325 325 325 325 325 325 325 325 325 325 325 326 326 326 326 325 325 325 324 324 325 325 326 327 328 328 329 329 329 328 328 328 329 328 327 325 322 320 319 318 317 316 315 315 314 314
308 308 308 309 309 309 309 310 310 310 310 310 311 311 311 312 313 313 313 314 314 315 315 315 315 316 316 317 317 318 318 319 320 321 322 322 322 323 323 323 323 324 324 324 324 324 324 324 324 324 325 325 325 325 325 324 324 324 323 323 324 324 325 326 327 327 328 328 328 328 328 327 327 327 326 325 322 320 318 316 315 315 314 314 313 313
306 305 306 307 306 306 306 307 308 308 307 307 308 308 309 309 310 311 311 311 311 312 312 312 313 313 314 315 315 315 316 317 318 318 319 320 320 320 321 321 321 322 322 322 323 323 323 324 324 324 324 324 324 324 324 323 323 323 323 323 323 323 324 325 326 327 327 327 327 327 327 326 326 325 325 324 322 320 317 315 314 313 313 312 312 311
303 303 304 305 305 304 304 304 304 305 306 305 305 305 306 307 308 308 308 309 309 309 310 310 311 311 312 312 313 314 314 315 316 316 317 318 318 318 319 319 319 320 320 321 321 321 322 322 322 323 323 323 323 323 323 323 323 323 322 322 323 323 324 325 326 326 326 326 325 324 324 323 322 322 321 320 319 317 315 314 312 312 311 310 310 310
301 301 302 302 302 302 301 301 302 303 304 304 303 303 303 304 304 305 306 306 307 307 308 308 309 309 310 310 311 311 312 313 314 314 315 315 316 316 317 317 317 318 318 318 318 318 319 319 320 320 320 321 321 322 322 322 322 322 322 322 323 323 324 325 325 324 323 322 321 320 319 318 317 316 316 315 314 313 312 311 310 309 309 309 308 308
301 300 300 300 300 300 299 299 300 301 302 303 303 302 301 301 301 302 303 304 305 305 306 306 307 307 307 308 308 309 310 311 311 312 312 313 313 313 314 314 314 315 315 315 315 316 316 316 316 317 317 318 319 319 320 320 320 321 321 321 322 322 323 324 324 322 321 320 319 318 316 315 314 313 312 311 311 310 309 309 308 307 306 306 306 306
301 300 300 300 300 300 299 298 299 300 301 302 302 302 302 300 300 300 300 301 302 303 304 305 304 304 304 305 306 307 307 308 309 309 309 309 310 310 310 310 311 311 312 312 313 313 313 314 314 314 314 315 316 317 317 318 318 318 318 318 319 320 321 321 321 320 319 318 317 316 315 313 312 311 309 308 307 307 306 305 305 304 304 304 304 304
301 300 300 300 300 300 299 298 298 299 300 301 301 302 302 302 301 300 299 298 299 300 301 302 302 302 302 303 304 305 305 306 306 306 306 306 306 307 307 308 308 308 309 310 310 310 311 311 312 312 312 312 313 314 314 315 315 315 315 314 314 315 315 316 316 316 316 316 315 314 313 312 310 308 307 305 304 304 303 303 302 302 302 302 303 303
300 300 299 299 298 298 298 298 298 298 299 300 300 300 300 301 301 301 299 297 297 297 298 299 300 300 301 300 301 302 303 304 304 304 304 304 305 305 306 306 306 307 307 307 307 307 307 308 308 308 308 309 309 310 310 311 311 310 310 310 309 309 310 310 310 310 311 311 311 310 310 308 307 306 304 303 302 301 301 301 301 301 301 301 301 301
300 299 299 298 298 297 297 297 297 298 299 300 300 300 299 300 300 300 299 297 296 296 297 297 297 298 299 299 299 300 301 301 302 302 303 303 303 304 304 305 305 305 304 304 304 304 304 304 304 304 305 305 305 306 306 306 306 306 305 305 305 305 305 305 305 305 305 305 305 305 304 304 303 302 302 301 300 300 300 300 300 300 300 300 300 300
299 299 299 298 298 297 297 297 298 299 299 300 301 300 299 299 299 298 297 296 296 296 296 296 296 296 297 298 298 299 299 299 300 301 301 301 301 301 302 302 302 302 302 302 301 301 301 301 302 302 302 302 302 302 303 302 302 302 302 301 301 301 301 301 301 301 301 301 301 301 301 301 301 301 301 301 301 301 301 301 300 300 300 300 300 299
300 300 300 299 298 298 297 298 299 300 300 300 299 299 298 298 298 297 296 295 295 295 296 295 295 295 295 296 297 298 298 298 299 300 299 299 300 300 300 300 301 301 301 301 301 301 301 301 301 302 302 302 302 302 302 302 301 301 301 301 301 301 301 301 301 301 301 302 302 302 302 302 303 303 303 303 302 302 301 301 300 300 299 299 299 298
301 301 301 301 300 299 298 298 299 299 299 298 298 298 297 297 297 297 296 295 295 295 296 296 295 295 295 295 296 297 297 298 298 298 298 298 298 299 299 300 300 300 301 300 300 300 300 301 301 302 302 302 302 303 303 303 303 303 303 303 303 303 304 304 304 304 304 304 304 304 305 304 304 303 303 302 301 301 300 300 299 299 298 298 298 298
302 302 302 301 300 299 299 299 299 299 298 297 297 298 298 297 297 297 296 296 296 296 297 297 297 296 295 295 296 297 298 297 297 297 297 296 297 298 298 299 298 298 298 298 298 298 298 299 299 300 300 300 301 302 302 302 303 303 303 304 304 304 304 304 304 304 304 304 304 304 303 303 302 302 301 300 300 299 299 298 298 298 298 298 297 297
302 302 302 301 300 299 299 299 299 298 297 297 297 298 298 298 297 297 297 297 297 298 298 299 299 298 297 296 296 297 298 297 296 296 295 294 295 296 296 297 296 296 296 296 296 296 296 296 296 297 297 298 298 299 300 300 300 301 301 301 301 302 302 302 301 301 301 301 301 300 300 300 299 299 299 298 298 298 298 297 297 297 297 296 296 296
303 303 303 302 301 300 299 299 298 298 297 297 297 297 297 297 297 297 297 297 298 299 299 300 299 299 298 296 295 296 297 297 296 295 294 293 293 294 294 295 295 294 294 294 294 294 294 294 295 295 295 296 296 297 297 297 298 298 298 298 298 298 298 298 298 298 298 298 298 298 297 297 297 297 297 297 296 296 296 296 295 295 295 295 294 294
303 303 303 302 301 300 299 299 299 298 297 297 298 297 297 297 297 297 297 298 299 299 300 299 299 297 296 295 294 295 296 296 296 294 293 291 291 292 293 293 293 293 293 293 293 293 294 294 294 294 294 294 295 295 295 296 296 296 296 296 296 296 296 296 296 296 296 296 296 296 296 296 296 295 295 295 295 294 294 294 294 294 294 294 294 294
303 303 302 302 301 301 300 299 299 298 298 298 298 298 297 297 297 297 298 298 299 299 299 298 296 295 295 294 294 294 295 296 295 293 292 291 290 291 292 292 293 292 292 292 293 293 293 293 293 293 293 293 294 294 294 294 295 295 295 295 295 295 295 295 295 295 295 295 295 295 295 294 294 294 294 294 294 293 293 293 293 293 293 293 293 294
303 303 302 301 301 301 300 299 299 298 298 298 298 297 297 297 297 297 297 298 298 298 297 296 294 294 294 293 293 294 295 295 295 293 292 291 290 290 291 292 292 292 291 292 292 292 293 293 293 293 293 293 293 293 293 294 294 294 294 294 294 294 294 294 294 294 294 294 294 294 294 293 293 293 293 293 293 293 293 293 293 293 293 293 293 293
302 302 301 301 301 300 300 299 298 298 298 298 298 298 298 297 297 297 298 298 297 296 295 293 293 293 293 293 293 294 294 295 295 295 293 292 290 289 290 291 291 291 291 291 291 292 292 293 292 292 292 292 293 293 293 293 293 294 294 294 294 294 294 294 294 293 293 293 293 293 293 293 293 293 293 293 293 293 293 293 293 293 293 293 293 293
301 301 301 300 300 300 299 299 298 298 298 298 298 298 298 298 298 298 297 297 296 295 294 293 293 292 292 292 292 293 293 294 295 295 293 292 290 289 290 291 291 290 290 291 291 291 292 292 292 292 292 292 292 292 292 292 293 293 293 293 293 293 293 293 293 293 293 293 293 293 293 293 293 293 292 292 292 292 292 292 292 292 292 292 292 292
301 301 300 300 299 299 299 299 298 298 298 297 297 297 297 297 297 296 296 295 295 295 294 293 293 292 291 291 291 292 293 293 295 295 293 291 289 289 289 290 290 290 289 290 291 291 291 291 291 292 292 292 292 292 292 292 292 292 292 292 292 292 293 293 293 293 293 293 293 293 293 293 293 292 292 292 292 292 292 292 292 292 292 292 292 292
301 300 300 300 299 299 299 299 299 298 298 298 297 297 297 297 296 296 295 295 295 294 294 294 293 292 291 290 290 291 291 292 294 294 293 291 289 288 289 290 290 289 289 290 290 291 291 291 291 291 291 292 291 291 291 292 292 292 292 292 292 292 292 292 293 293 293 293 293 293 293 293 292 292 292 292 292 292 291 292 291 291 291 291 291 291
300 300 300 299 299 299 299 299 298 298 298 298 298 298 298 297 296 295 294 294 294 295 296 296 295 293 291 291 290 290 290 291 292 293 293 292 290 288 288 289 289 289 289 289 289 290 290 290 290 290 291 291 291 291 291 291 291 291 292 292 292 292 292 292 293 293 293 293 293 292 292 292 292 292 291 291 291 291 291 291 291 291 291 291 291 291
298 298 298 297 297 297 297 297 297 297 297 297 297 297 298 297 296 295 294 294 295 296 297 297 296 294 293 292 291 289 290 290 291 292 293 292 291 289 288 288 289 289 289 288 288 289 289 290 290 290 290 290 291 291 291 291 291 291 291 291 292 292 292 292 292 292 292 292 292 292 292 291 291 291 291 291 291 291 291 291 291 291 291 291 291 291
297 296 296 295 295 295 296 296 296 296 296 296 296 296 297 297 296 296 295 295 296 297 297 297 296 295 294 292 290 289 289 290 290 291 293 292 290 288 287 288 289 289 289 288 288 288 289 289 289 290 290 290 290 290 291 291 291 291 291 291 291 292 292 292 292 292 292 291 291 291 291 291 291 291 290 290 290 290 290 290 290 290 291 291 291 291
297 296 296 295 295 295 295 295 294 294 294 295 295 296 296 296 296 296 296 296 296 297 297 296 295 294 293 291 291 291 291 290 290 291 292 292 289 288 287 288 288 289 289 289 289 289 289 289 289 289 289 290 290 290 290 290 291 291 291 291 291 291 291 291 291 291 291 291 291 290 290 290 290 290 290 290 290 290 290 290 290 290 290 290 290 290
296 296 295 295 295 295 294 294 294 294 294 294 295 295 295 295 295 295 295 295 296 296 296 295 294 293 292 293 294 294 294 291 290 291 292 291 289 288 288 288 288 289 290 290 292 292 290 289 289 289 289 289 289 290 290 290 290 291 291 291 291 291 291 291 291 290 290 290 290 290 290 290 289 289 289 289 289 289 289 289 289 289 290 290 289 289
295 295 294 294 294 294 294 294 294 294 294 294 294 295 295 295 295 295 295 295 295 295 295 294 293 293 293 294 296 296 294 291 290 291 292 291 289 288 288 288 288 289 290 290 292 293 291 289 288 288 288 289 289 289 289 290 290 291 291 291 291 290 290 290 290 290 290 290 289 289 289 289 289 289 288 288 288 288 288 288 288 289 289 289 289 289
293 293 293 293 293 293 293 293 294 294 294 294 294 294 294 294 294 294 294 295 295 295 294 294 293 293 293 293 293 293 291 290 290 291 292 291 290 289 289 289 288 288 289 290 290 290 290 289 288 287 287 288 288 289 289 289 290 290 291 290 290 290 290 290 289 289 289 289 289 289 288 288 288 288 288 287 287 287 287 287 288 288 288 288 288 289
292 292 292 292 292 292 293 293 293 293 293 293 293 293 293 293 293 293 294 294 294 294 294 293 293 292 292 291 291 290 289 289 290 291 291 291 290 289 289 289 289 288 289 289 289 288 288 288 287 287 287 287 287 288 288 289 290 290 290 290 290 289 289 289 289 289 289 288 288 288 287 287 287 287 287 287 286 286 286 287 287 287 288 288 288 288
291 291 291 291 291 291 291 292 292 292 292 292 292 292 292 292 293 293 293 293 293 293 293 293 292 292 292 291 291 290 289 289 290 290 291 291 291 290 289 289 289 289 289 289 289 289 288 288 288 288 288 287 287 287 287 288 289 290 290 289 289 289 289 288 288 288 288 287 287 287 286 286 286 286 286 286 286 286 286 286 286 287 287 287 287 287
290 290 290 290 290 290 290 290 290 291 291 291 292 292 292 292 292 292 292 292 292 292 292 292 292 292 292 291 291 290 289 289 290 290 290 291 291 290 290 290 289 289 289 289 289 289 289 288 288 289 289 288 288 287 287 287 288 288 289 289 288 288 288 288 287 287 286 286 286 286 286 286 286 286 285 285 286 286 286 286 286 286 286 286 286 286
289 289 289 289 289 289 289 289 289 289 290 290 290 291 291 291 291 291 292 292 292 291 291 291 291 291 291 291 291 290 289 289 289 289 290 290 290 290 290 290 289 289 290 290 290 289 289 289 289 289 289 289 289 288 287 286 287 287 287 287 287 287 287 287 287 286 286 286 286 286 285 285 285 285 285 285 285 285 285 285 285 285 285 285 285 285
288 288 288 288 288 288 288 288 288 288 289 289 289 290 290 290 290 291 291 291 291 291 291 291 290 290 290 290 290 290 290 289 289 289 289 289 289 290 290 290 290 289 290 290 290 290 290 290 290 290 290 289 289 288 287 286 286 286 286 286 286 286 286 286 286 286 285 285 285 285 285 285 285 285 285 285 285 285 285 285 285 285 285 285 285 285
287 287 287 287 287 287 287 287 287 287 288 288 289 289 289 290 290 290 290 290 290 290 290 290 290 289 289 289 289 289 289 289 289 289 289 289 289 289 289 289 289 289 289 289 289 289 290 291 291 291 290 289 288 288 287 287 287 287 286 286 285 285 285 285 285 285 285 285 285 285 285 285 285 285 284 284 284 284 284 284 284 284 284 284 284 284
286 286 286 286 286 286 286 286 287 287 287 288 288 289 289 289 289 289 289 288 288 288 288 288 288 288 288 288 288 288 288 289 289 289 289 289 289 288 288 288 288 289 289 289 289 289 290 290 290 290 290 289 289 288 287 287 287 287 287 286 286 286 285 285 285 285 285 285 285 285 285 284 284 284 284 284 284 284 284 284 284 284 284 284 284 284
286 285 285 285 285 286 286 286 286 286 287 287 287 287 288 288 287 287 287 287 287 287 287 287 287 287 287 287 287 287 287 288 288 288 288 288 288 288 288 288 288 288 288 288 288 288 288 289 289 289 289 289 289 288 288 287 287 287 287 287 287 287 286 285 285 285 285 284 284 284 284 284 284 284 284 284 284 283 283 283 283 283 283 283 283 283
285 284 284 284 285 285 285 285 285 286 286 286 286 286 286 286 286 286 286 286 286 286 286 286 286 286 285 285 285 286 286 286 286 286 286 287 287 287 287 287 287 287 287 287 287 287 287 288 288 288 288 288 288 288 288 287 287 287 287 287 287 287 286 286 285 285 284 284 284 284 284 284 284 284 283 283 283 283 283 283 283 283 283 283 283 283
284 284 284 284 284 284 284 285 285 285 285 285 285 286 286 286 285 285 285 285 285 285 285 286 286 285 285 285 284 284 285 285 285 285 285 286 286 286 286 286 286 286 286 286 287 287 287 287 287 287 287 287 288 288 288 287 287 287 287 287 287 287 286 286 285 284 284 284 284 284 284 284 283 283 283 283 283 283 283 283 283 283 283 283 283 283
283 283 283 284 284 284 284 284 284 284 285 285 285 285 285 285 285 285 285 285 285 285 285 285 285 285 285 285 284 284 284 284 284 284 285 285 285 285 285 285 285 285 285 286 286 287 286 286 286 286 286 286 287 287 287 287 287 287 286 286 286 286 286 286 285 284 284 284 284 283 283 283 282 282 282 282 283 283 283 283 283 283 282 282 282 282
283 283 283 284 284 284 284 284 284 284 284 284 284 284 285 285 285 285 285 285 285 285 285 285 285 285 285 285 284 284 284 284 284 284 284 284 285 285 285 285 285 285 285 285 286 286 286 286 285 285 285 285 286 286 287 287 287 286 286 285 285 285 285 285 284 284 284 284 283 283 283 282 282 282 282 282 283 283 283 283 283 282 282 282 282 282
283 283 283 283 283 283 283 284 284 284 284 284 284 284 284 284 284 285 285 284 284 284 285 285 286 286 285 285 284 284 284 284 283 283 283 284 284 284 284 285 285 285 285 284 285 285 285 285 284 284 284 285 285 285 286 286 286 286 285 285 284 284 284 284 283 283 283 283 283 282 282 282 282 282 282 282 283 283 283 283 283 282 282 282 282 282
283 283 283 283 283 283 283 283 284 284 284 284 284 284 284 284 284 284 284 284 284 284 285 285 286 286 285 285 285 284 284 283 283 283 283 283 283 283 284 284 284 284 284 284 284 284 284 284 284 284 284 285 285 285 284 284 284 285 285 284 284 284 284 283 283 282 282 282 282 281 281 281 281 282 282 282 282 282 282 283 282 282 282 282 282 282
283 283 283 283 283 283 283 283 284 284 284 284 283 284 284 284 284 284 284 284 285 285 285 286 286 286 285 285 285 284 284 283 283 283 282 282 282 283 283 283 283 284 284 284 284 284 284 284 284 284 284 284 285 285 284 283 283 283 283 283 283 283 283 283 282 282 281 281 281 281 281 281 281 281 282 282 282 282 282 282 283 282 282 282 282 282
283 283 283 283 283 283 283 284 284 284 284 284 284 284 284 284 284 284 284 285 285 285 285 285 285 285 285 285 285 284 284 283 283 283 282 282 282 282 282 282 283 283 283 283 283 283 283 283 283 283 283 283 283 284 284 283 282 282 282 282 282 282 282 282 282 281 281 281 281 281 280 280 280 281 281 281 282 282 282 282 282 282 282 282 282 281
283 283 283 283 283 284 284 284 284 285 284 285 284 284 284 284 284 284 284 285 285 285 285 285 285 285 285 284 284 284 283 283 283 282 282 282 282 282 282 282 282 283 283 283 283 283 283 282 282 282 282 282 282 283 283 283 282 281 281 281 281 281 281 281 281 281 281 281 280 280 280 280 280 280 281 281 281 282 282 282 282 282 282 282 282 281
282 282 282 283 283 283 284 284 284 285 285 285 284 284 284 284 284 284 284 285 285 285 285 285 285 285 284 284 284 283 283 283 283 283 282 282 282 282 282 282 282 283 283 284 284 284 284 284 283 282 281 281 281 282 282 283 282 282 282 281 281 281 281 281 281 281 280 281 281 281 280 280 281 281 281 281 281 281 282 282 282 282 282 282 281 281
Wind_Speed
18 19 20 21 24 26 25 25 25 25 25 25 26 26 27 28 29 29 30 30 29 29 29 29 29 29 29 29 29 29 29 29 29 29 28 28 28 28 28 29 29 29 29 28 28 28 29 29 29 30 31 32 33 34 34 33 33 32 31 31 31 31 31 30 30 30 32 34 36 36 36 36 37 39 41 43 44 45 46 46 46 45 44 42 40 38
17 18 19 21 23 25 24 23 24 24 25 25 25 26 26 26 27 27 28 28 28 28 28 28 28 28 28 28 29 29 29 29 29 29 28 28 28 28 28 28 28 28 28 29 28 28 28 28 29 29 30 31 32 33 33 32 31 30 30 30 30 31 30 30 30 31 32 33 34 34 35 36 37 38 40 42 44 45 46 46 45 44 43 41 39 37
17 18 19 21 22 23 22 22 23 24 24 24 24 24 25 25 25 25 25 25 25 25 25 25 26 26 26 27 28 28 29 29 29 29 29 28 28 28 28 28 28 29 29 29 29 28 28 28 28 28 29 30 30 31 30 30 29 28 28 28 29 30 30 29 30 31 32 33 33 33 35 36 37 39 40 42 42 43 43 43 43 42 41 40 39 37
17 17 19 21 21 21 21 22 22 22 22 22 23 23 23 23 22 22 22 22 22 22 22 22 22 22 23 23 24 25 26 26 27 28 28 28 28 28 29 29 29 29 29 29 29 29 29 29 29 29 29 30 30 30 30 30 29 28 28 28 28 29 29 29 29 30 31 32 32 33 35 37 38 39 40 41 41 40 40 39 39 39 39 39 38 37
15 16 18 19 19 18 19 20 21 20 20 20 20 20 20 20 20 19 19 19 18 18 18 18 19 19 19 19 19 20 21 22 23 24 25 26 26 27 28 28 28 29 29 29 30 30 30 30 31 31 31 32 32 33 33 33 32 32 31 30 30 30 30 30 29 30 31 32 33 34 36 38 40 40 40 41 42 41 38 37 35 35 35 35 35 34
13 15 17 18 17 16 17 18 19 19 19 18 17 17 17 17 16 16 15 14 14 14 15 15 15 15 15 15 16 16 16 17 18 19 20 21 22 23 24 24 25 26 26 27 28 29 30 31 32 33 34 34 35 36 36 37 37 36 36 34 33 33 33 32 31 32 33 33 34 35 37 40 41 41 41 42 42 41 38 34 32 30 29 28 27 27
12 14 16 17 17 17 17 17 18 18 19 18 17 16 15 15 14 14 14 13 13 14 14 13 13 13 13 13 13 13 13 13 13 14 15 15 16 17 18 19 19 20 21 22 24 25 26 28 29 30 32 33 34 35 37 38 39 39 39 38 37 36 35 33 32 31 32 31 32 32 34 35 36 36 37 37 37 36 33 30 27 25 23 21 21 21
12 13 14 15 16 16 16 16 17 17 18 19 18 17 16 15 15 15 15 15 15 15 14 14 13 13 12 12 12 11 11 10 10 10 11 11 12 12 13 13 14 14 15 16 17 18 19 20 21 23 24 26 28 29 31 33 35 36 36 37 37 36 34 32 30 28 27 28 28 28 28 28 28 28 28 28 28 27 27 25 24 22 20 19 18 17
12 12 12 13 15 15 14 14 15 17 17 18 18 19 18 17 17 17 17 17 16 16 16 16 15 14 14 13 13 13 12 12 11 11 11 11 11 11 10 10 10 11 10 10 11 11 11 12 13 14 15 17 19 21 22 23 25 26 28 29 30 31 32 31 29 27 27 28 28 28 27 26 25 23 22 22 22 22 22 22 21 20 19 18 16 15
12 11 10 11 13 13 13 12 14 15 16 16 17 18 19 19 18 17 16 17 17 17 17 17 17 16 15 14 15 15 15 15 14 14 14 14 14 13 12 11 11 10 9 9 8 8 8 9 9 9 9 11 12 14 15 16 16 17 19 20 22 24 26 27 28 28 29 29 29 29 28 28 26 24 22 21 21 20 20 19 18 18 17 16 15 13
10 10 9 9 9 11 12 12 14 15 15 16 16 16 17 18 17 16 14 13 15 16 17 17 17 17 17 16 16 16 17 17 17 17 17 17 16 16 15 14 13 12 10 9 8 8 8 9 9 9 9 10 11 12 13 14 15 16 17 18 19 20 22 24 26 28 29 30 30 30 30 30 29 27 25 23 21 20 19 18 17 16 15 15 14 13
10 9 8 8 8 9 10 12 14 15 15 14 13 11 12 14 15 14 13 12 13 14 15 16 17 17 18 17 17 17 18 18 19 18 18 17 17 16 15 15 14 13 12 11 10 10 10 10 11 11 12 12 13 14 15 16 18 19 20 21 22 23 24 25 26 27 28 29 30 31 31 32 31 29 27 24 22 20 19 18 17 16 15 15 14 13
9 9 8 8 8 8 10 11 11 12 12 11 9 8 8 11 12 13 14 13 14 14 15 15 15 16 17 18 18 17 17 18 18 18 18 17 16 15 15 15 15 14 14 13 13 12 12 13 13 14 15 16 17 18 19 20 21 22 22 23 23 24 25 25 26 26 27 27 28 29 30 30 29 28 25 23 21 19 17 16 16 16 16 16 16 15
9 8 8 7 7 7 8 9 9 8 8 8 7 8 10 12 13 13 14 13 14 15 16 16 15 14 15 17 17 17 17 17 17 17 17 17 16 16 16 16 16 16 15 16 16 15 14 14 14 14 15 15 16 17 18 19 19 20 20 21 21 21 22 22 22 22 22 22 22 22 23 22 21 20 18 17 15 15 15 16 17 17 18 19 19 18
8 7 6 5 5 7 8 8 7 7 7 7 8 10 12 13 14 14 13 12 13 15 16 16 14 13 13 15 17 17 17 17 17 18 17 17 17 16 16 16 16 16 15 16 16 15 13 13 12 12 12 12 12 12 12 12 12 12 13 13 14 14 14 14 14 14 13 13 12 12 11 11 11 10 11 12 14 15 17 18 19 19 19 19 18 18
8 7 5 5 6 7 9 9 8 7 7 8 10 12 14 14 13 13 13 13 14 15 14 12 10 9 9 13 16 18 17 17 17 17 17 16 15 15 14 15 15 15 14 15 15 14 12 12 11 11 10 10 9 8 7 7 6 6 6 6 6 6 6 6 5 5 5 5 5 5 6 7 9 10 12 14 15 17 18 19 19 19 18 17 16 15
7 7 6 6 6 7 9 10 10 9 9 10 12 14 15 14 14 13 13 14 13 12 10 9 6 3 4 8 13 16 17 17 17 17 16 15 14 13 13 14 15 16 14 14 14 14 13 12 11 11 11 10 10 9 9 8 7 7 6 6 6 5 5 5 5 6 6 7 8 8 10 11 12 13 14 14 15 16 17 17 17 17 16 15 14 13
7 7 6 6 6 7 9 10 10 10 11 12 13 14 14 14 14 14 14 14 12 10 9 8 6 3 3 4 7 12 17 16 16 16 16 14 13 12 12 13 15 16 15 15 15 14 14 13 12 11 11 10 10 11 11 11 10 10 10 10 9 9 9 10 10 10 10 11 11 12 12 13 13 13 13 13 14 14 14 14 14 13 12 11 11 10
7 7 6 6 6 8 9 9 10 11 12 12 13 13 13 13 14 14 14 13 12 10 9 7 6 5 6 6 10 15 16 15 15 15 14 13 12 12 12 13 14 16 16 16 16 16 15 14 13 11 10 10 10 11 11 12 12 12 13 13 13 13 13 13 13 13 13 13 14 14 14 13 13 13 12 12 12 11 11 11 10 9 9 8 7 7
7 7 6 6 7 7 8 8 9 10 12 13 13 12 11 12 13 13 12 12 10 9 8 7 6 6 7 9 13 16 17 15 14 14 13 12 11 12 13 13 14 16 17 16 16 16 16 16 14 12 11 10 10 11 11 12 13 13 14 14 14 14 14 14 14 14 14 13 13 13 12 12 12 11 11 11 10 10 9 8 8 7 7 6 6 6
7 6 6 7 7 7 6 7 8 10 11 12 12 11 11 11 11 11 10 10 9 8 7 6 6 7 9 12 15 17 17 15 13 12 10 9 9 11 12 13 14 15 15 15 15 16 16 16 15 13 11 10 10 10 11 11 12 13 14 14 14 14 14 14 13 12 12 11 11 11 10 10 10 9 9 9 8 8 8 7 7 6 6 6 6 5
6 6 6 6 6 6 6 7 9 10 11 12 11 10 10 10 10 10 10 9 8 8 8 7 8 10 13 15 16 17 16 14 13 11 8 6 6 9 12 12 13 13 14 14 14 14 14 14 14 12 11 10 10 10 10 10 11 12 12 13 13 13 13 12 12 11 11 10 10 9 9 9 8 8 8 8 7 7 6 6 6 5 5 5 5 6
8 8 7 7 6 7 8 9 9 10 10 11 10 10 10 10 10 10 10 9 9 9 10 10 11 13 14 16 17 17 15 14 13 10 7 4 4 7 11 11 12 12 13 13 13 13 12 13 13 12 10 9 9 9 9 9 9 10 10 11 11 11 11 11 11 10 10 9 9 9 8 8 7 7 7 6 6 6 6 6 5 5 6 6 6 6
10 9 8 7 7 8 9 10 10 10 10 10 9 9 10 10 10 10 10 11 12 12 12 13 12 12 12 14 14 14 13 12 10 8 5 4 4 8 10 10 11 11 12 12 12 12 12 12 12 12 11 10 9 9 9 9 9 8 8 8 9 9 9 9 9 9 8 8 8 7 7 6 6 6 6 5 5 5 5 6 6 6 6 6 6 7
10 9 8 7 7 8 9 11 11 11 12 11 11 12 12 12 12 12 13 13 13 13 13 12 11 9 9 10 10 10 11 11 9 6 6 4 5 8 10 10 10 11 11 12 12 12 12 11 11 11 11 10 10 10 10 10 9 9 8 7 7 7 7 7 7 7 7 6 6 6 6 6 5 5 5 5 5 5 5 5 6 6 6 6 6 7
11 10 9 8 8 8 8 9 10 11 11 11 12 12 12 12 12 12 12 12 12 12 11 9 7 5 6 7 6 7 8 9 8 6 6 5 6 8 10 10 10 11 11 12 12 11 10 10 9 9 9 9 10 10 9 10 10 9 9 8 7 7 6 6 6 6 6 6 6 6 6 6 5 5 5 5 5 5 5 5 5 5 5 6 6 6
12 11 11 10 9 9 8 8 8 8 8 8 8 9 10 11 12 11 11 11 12 11 8 6 5 4 4 4 4 4 6 7 6 5 6 7 7 7 8 10 11 11 12 11 10 9 9 8 8 8 8 8 8 8 8 8 8 8 8 8 8 7 7 6 6 6 6 6 6 6 6 6 6 6 5 5 5 5 4 5 5 5 5 5 6 7
15 14 14 13 12 11 10 9 8 7 7 6 6 6 7 9 10 9 8 10 10 9 6 5 4 3 3 3 3 4 5 6 6 6 6 7 6 6 9 11 12 12 11 10 8 8 8 7 7 7 7 7 7 7 7 7 7 7 7 7 7 7 6 6 6 6 6 6 6 6 6 6 6 5 5 5 4 4 4 4 4 5 5 5 6 7
16 17 16 16 15 14 13 11 10 9 8 7 7 6 6 7 7 8 9 11 10 7 4 4 4 4 4 4 4 3 4 5 6 6 6 5 5 6 10 12 12 11 10 8 6 5 5 5 6 6 5 6 6 6 6 6 6 6 6 6 5 5 5 5 5 5 6 6 6 6 6 5 5 5 4 4 4 4 4 4 4 4 5 6 8 9
16 17 17 17 17 16 15 14 12 10 9 8 8 8 7 6 6 7 9 11 10 6 4 4 5 5 5 4 3 2 2 4 7 7 6 4 4 6 11 11 11 11 9 6 3 2 1 3 4 5 5 5 5 5 5 6 6 6 6 6 5 5 5 6 6 6 6 6 6 6 6 5 5 5 5 5 5 5 5 5 5 5 6 8 10 11
17 17 17 17 17 16 15 14 13 11 9 9 8 8 7 6 6 6 8 10 9 6 5 5 6 6 6 4 2 1 1 4 7 9 7 4 4 7 11 10 10 11 10 6 2 1 1 1 3 5 5 5 5 6 6 6 6 6 6 7 7 7 7 7 7 7 7 6 6 6 6 6 6 6 6 6 7 7 7 7 6 6 6 8 9 10
17 17 16 16 16 15 14 12 11 10 9 8 8 7 6 5 5 6 7 9 8 6 5 6 6 7 6 3 2 1 2 4 8 10 9 5 6 8 11 10 10 12 11 7 3 1 1 1 2 4 6 6 6 6 6 6 6 7 8 8 8 8 8 8 8 8 7 7 7 7 6 7 7 7 7 8 8 9 9 9 8 7 6 7 8 8
16 16 15 14 14 13 11 10 9 9 8 8 7 6 6 5 5 5 7 8 8 7 5 6 6 6 5 4 3 3 3 5 8 11 11 7 6 7 9 9 10 11 10 7 4 3 3 3 3 3 5 6 6 7 7 7 8 9 9 9 9 9 9 8 8 8 8 7 7 7 7 8 8 9 9 9 10 10 10 10 9 8 7 7 7 7
15 15 14 13 12 12 11 10 9 9 9 8 8 7 7 6 6 6 7 7 7 6 5 5 5 6 6 5 5 4 4 5 8 11 12 8 5 6 8 8 9 10 9 5 3 4 4 4 4 3 3 5 6 7 8 9 9 10 10 10 10 9 9 8 8 8 8 8 8 8 8 9 9 10 10 10 10 10 10 10 10 10 9 9 8 8
13 13 13 12 12 11 11 10 10 10 9 9 9 8 8 8 8 8 7 7 6 5 4 5 6 7 6 5 4 4 4 6 9 12 12 9 7 8 8 8 9 9 8 5 3 3 3 4 4 4 4 3 4 6 8 10 11 11 11 11 10 9 9 8 8 8 8 8 8 9 9 9 9 9 9 10 10 11 11 11 11 12 12 12 11 10
11 11 12 11 11 11 11 11 11 11 11 10 10 10 9 9 9 9 8 8 7 6 6 6 7 7 6 6 5 6 6 7 9 12 12 9 7 7 8 7 9 9 7 5 4 3 3 3 4 4 4 4 3 4 7 10 11 12 11 11 10 10 10 9 9 8 7 6 6 7 7 8 7 7 8 9 11 11 12 12 12 13 13 14 14 13
10 10 11 11 11 11 11 11 11 11 12 12 11 11 11 11 11 10 10 9 9 8 8 8 8 7 6 6 7 8 8 8 9 12 13 9 6 6 8 8 9 9 7 6 5 4 4 4 4 4 4 4 3 4 5 8 10 10 9 10 10 10 10 11 10 9 7 5 5 5 6 6 6 6 8 10 11 11 12 12 13 13 14 14 15 15
10 10 10 10 10 10 10 10 11 11 12 12 12 12 12 12 12 11 11 10 10 9 9 9 8 8 7 7 7 8 8 9 10 12 12 10 6 5 6 8 9 9 8 6 5 5 4 4 3 3 3 3 3 4 5 7 7 7 7 8 9 9 10 10 10 9 7 6 6 5 6 6 6 7 8 9 10 10 10 10 11 11 12 13 14 15
9 9 9 10 10 10 10 10 11 11 12 12 12 12 12 12 12 12 11 11 10 9 9 8 8 8 8 8 8 8 8 8 10 11 11 10 7 5 4 5 7 8 9 8 6 5 4 3 3 3 3 3 3 4 5 6 6 6 6 6 6 7 8 9 9 8 7 7 6 6 6 6 7 7 8 8 9 8 8 8 8 9 10 11 12 13
9 9 9 10 10 11 11 12 12 12 12 13 13 13 13 12 12 12 11 11 10 10 9 9 9 10 10 10 9 9 8 8 8 8 9 8 7 5 4 4 5 7 8 8 7 4 3 3 3 2 2 3 3 4 4 5 6 6 6 5 4 5 6 6 6 6 7 7 7 6 6 6 7 7 7 7 7 7 8 8 9 10 11 11 11 11
9 10 10 10 12 12 13 12 12 13 13 13 13 12 12 12 12 12 12 11 11 11 11 11 11 11 11 11 10 10 9 8 7 6 5 5 4 4 4 4 4 5 6 7 6 4 2 2 2 1 2 2 3 4 4 5 5 6 6 5 4 4 5 5 5 5 6 6 7 7 6 6 6 6 6 6 7 8 9 9 10 11 12 12 11 10
10 10 11 12 12 13 12 12 12 12 12 12 12 12 12 12 12 12 12 12 12 12 12 12 12 13 13 12 11 10 10 8 7 6 5 4 4 4 4 4 4 5 6 5 4 3 2 2 1 1 2 2 2 3 3 4 5 5 5 4 4 3 3 4 5 5 5 5 5 5 5 5 5 5 6 7 7 8 10 10 11 12 12 12 11 11
11 12 13 13 13 12 12 12 11 11 11 11 11 12 12 11 11 11 11 12 12 12 11 11 11 12 12 12 12 12 11 10 9 8 7 6 6 6 6 6 6 6 6 5 4 4 3 3 3 2 2 2 2 2 3 4 4 4 4 3 3 3 3 3 3 3 3 3 3 4 4 4 5 6 7 8 9 10 10 11 12 12 12 12 11 11
13 14 14 14 13 12 12 11 11 10 10 10 10 11 11 10 10 10 11 12 12 12 12 11 11 11 11 10 10 10 11 10 10 9 9 9 8 9 9 8 8 7 6 5 4 4 4 4 3 3 3 2 2 2 3 3 3 3 3 3 3 2 2 2 2 1 1 2 2 3 3 4 6 7 9 9 10 10 9 9 10 10 11 11 11 11
14 14 14 13 12 11 10 10 10 10 10 10 10 10 10 10 10 10 11 12 12 11 10 10 9 8 8 8 8 8 9 9 9 10 10 9 9 9 9 9 8 8 7 6 5 4 4 4 3 4 4 3 3 2 2 2 3 3 2 2 2 2 2 1 1 1 1 1 1 2 4 6 8 9 9 9 9 8 8 8 9 9 10 10 10 10
13 12 12 11 10 9 9 10 10 10 10 10 10 10 10 10 9 9 10 10 10 9 8 7 7 6 6 6 7 7 7 7 7 8 8 8 8 7 7 7 7 7 7 7 6 5 5 4 3 3 3 3 2 2 2 1 1 2 1 2 2 2 2 2 2 2 2 2 2 4 6 8 9 9 9 8 8 8 8 9 9 9 9 10 9 9
10 10 10 10 10 10 10 10 10 10 9 10 10 10 9 9 9 9 8 8 8 7 7 6 6 6 7 6 6 6 6 6 6 6 7 7 6 5 5 5 5 5 5 5 5 4 4 3 3 3 2 1 1 1 1 1 1 1 1 1 1 1 1 1 2 3 3 4 4 6 8 9 9 8 8 8 8 9 9 9 8 8 9 9 9 8
9 9 10 9 9 8 8 8 8 8 8 9 9 9 8 8 8 7 7 7 6 6 5 5 6 6 6 6 6 6 6 6 6 6 5 5 5 4 4 3 3 3 3 3 3 2 2 1 1 1 1 1 1 1 1 1 1 1 1 1 1 1 1 0 1 3 4 5 7 9 10 9 8 7 7 8 8 8 8 8 7 7 8 8 8 8
9 9 8 8 7 7 7 7 7 7 7 7 7 7 7 6 6 6 6 5 5 5 5 5 6 6 6 6 6 6 6 6 6 5 5 5 4 4 3 3 4 4 3 3 3 3 3 2 2 1 2 2 1 1 1 2 2 2 2 1 1 0 0 1 2 3 3 5 7 9 9 8 7 6 7 7 8 8 8 8 7 7 7 7 7 8
10 9 8 7 7 7 7 6 6 6 7 7 6 6 6 6 6 6 5 5 5 5 5 6 6 6 6 6 6 6 6 6 5 5 4 4 3 3 3 3 3 2 2 2 3 3 2 3 3 2 1 3 3 2 2 2 2 2 2 1 1 0 1 2 3 3 4 5 6 7 8 7 6 5 5 6 8 8 9 8 7 7 6 6 6 7
9 9 9 8 7 7 7 6 6 6 6 6 6 6 6 6 5 5 5 5 5 5 5 6 6 6 6 6 6 6 5 5 5 4 4 3 3 3 3 3 3 2 1 0 0 1 2 2 2 2 2 2 4 4 3 2 2 2 1 1 1 1 2 2 3 4 4 4 4 5 5 5 5 5 5 6 7 8 8 8 7 7 6 6 7 7
Wind_Direction
179 184 187 189 189 190 194 199 202 204 206 209 209 210 211 212 214 216 219 220 221 222 224 226 228 230 232 234 237 239 242 244 245 246 246 246 247 247 247 248 249 250 250 250 250 250 250 250 251 251 251 251 252 253 254 255 256 257 258 260 262 263 264 265 266 267 266 261 254 247 242 238 234 231 227 224 220 217 215 212 210 208 207 208 208 208
171 173 175 179 183 187 190 194 198 201 204 207 208 209 209 210 211 214 216 218 219 221 222 224 226 227 229 231 234 236 238 240 242 244 246 247 247 248 249 249 251 251 252 252 252 252 252 252 252 252 252 252 253 253 254 255 256 258 259 261 262 263 264 265 266 266 264 259 253 246 240 235 232 229 226 222 218 215 212 209 207 205 205 205 205 206
162 164 168 171 176 181 185 188 192 197 201 204 206 207 208 209 210 212 214 216 218 220 221 223 225 227 228 230 232 234 235 237 239 240 242 244 245 246 247 248 249 251 251 252 253 253 253 253 253 253 253 253 253 253 254 255 257 258 261 263 264 265 265 265 265 265 262 257 252 245 238 233 230 227 223 219 215 211 208 206 204 203 203 204 205 205
160 161 165 168 171 175 180 183 186 190 194 198 202 205 206 207 208 210 212 214 216 218 221 223 224 226 228 231 233 235 236 237 238 239 240 242 243 244 245 247 248 249 250 251 252 252 253 253 254 254 253 253 254 254 255 255 257 259 261 264 266 266 266 266 266 264 261 256 250 243 237 233 230 226 221 216 211 208 206 205 204 203 204 205 205 206
162 162 163 163 163 165 171 177 180 184 188 192 195 198 201 202 203 205 208 210 212 214 217 220 222 223 226 229 232 235 237 239 240 241 242 242 243 244 245 246 247 248 249 250 251 251 252 253 254 254 254 255 255 255 256 256 257 259 260 263 265 266 266 265 266 265 262 256 249 243 238 235 232 228 223 216 211 208 207 206 206 206 206 206 206 206
159 160 161 160 156 155 161 169 175 178 179 181 183 186 188 191 194 195 197 200 202 203 204 206 209 212 215 219 224 229 233 236 238 240 241 242 243 244 245 245 246 247 248 249 251 252 252 253 254 255 255 256 256 257 257 258 258 259 259 261 263 264 263 263 264 264 261 254 247 241 238 236 234 230 224 215 210 207 206 206 207 207 207 208 208 207
156 158 159 157 155 153 154 159 166 170 170 167 166 168 170 173 175 176 177 179 181 183 184 186 189 192 195 200 205 211 217 222 226 230 233 235 237 238 239 240 241 243 245 247 249 250 252 253 253 254 255 255 256 257 257 258 258 258 258 258 259 260 259 258 259 258 252 243 235 229 226 225 223 219 212 206 202 199 199 200 201 203 205 206 207 207
146 150 151 148 147 147 148 151 156 162 165 161 155 151 148 150 152 154 158 161 163 164 164 165 167 168 168 169 172 177 185 191 197 201 207 211 215 218 221 224 227 230 234 238 241 244 247 248 249 250 251 253 254 255 256 257 257 257 256 255 254 252 251 249 247 243 232 221 212 207 203 201 198 196 194 190 188 186 187 189 191 194 195 198 200 202
139 141 143 143 141 139 140 145 151 155 159 158 153 146 139 136 136 138 140 143 146 150 150 149 148 148 148 148 148 149 153 157 159 162 166 171 176 181 185 189 196 202 207 214 220 227 232 234 237 241 244 246 248 249 250 250 250 250 247 245 243 241 239 237 233 225 214 204 196 191 186 183 181 179 177 175 174 174 175 178 181 183 185 187 190 193
127 128 130 136 140 141 139 142 147 151 154 154 152 149 144 137 132 129 128 130 136 142 145 143 138 136 136 139 139 139 139 141 143 144 144 145 146 149 150 152 157 164 171 177 183 191 200 207 211 216 222 227 230 231 230 230 228 226 223 221 220 220 220 219 216 209 202 195 189 184 180 178 175 173 170 167 166 166 167 170 172 174 176 177 179 181
105 109 113 120 131 138 139 141 144 148 150 149 148 148 148 144 140 134 129 128 132 136 138 138 135 132 129 130 133 136 137 136 137 138 138 138 137 136 136 136 136 138 141 146 150 159 171 179 184 186 188 191 194 195 195 192 189 185 182 180 181 183 186 188 188 188 187 185 182 179 177 175 173 171 167 164 161 160 160 162 164 165 166 167 169 171
101 105 110 114 118 122 128 136 142 145 147 146 143 143 149 150 150 146 141 136 134 131 130 131 133 133 130 128 129 133 136 134 133 133 135 136 135 135 134 134 134 133 133 134 135 140 148 153 156 156 157 158 159 159 159 159 158 157 156 155 155 156 157 159 162 165 168 170 171 171 171 170 168 166 163 160 157 155 155 156 157 158 159 162 165 168
109 114 116 116 115 116 122 130 137 145 150 151 147 148 155 157 156 152 145 139 136 134 130 127 126 130 134 133 132 131 132 132 133 133 133 131 130 131 132 132 132 132 132 130 127 125 127 130 131 133 134 135 137 138 138 139 141 141 142 142 142 142 143 144 145 147 150 152 154 156 158 158 158 157 156 154 153 153 155 157 159 162 164 167 171 174
117 122 120 117 116 121 129 137 145 154 162 161 157 154 156 157 154 147 138 132 132 134 132 124 118 120 129 132 132 131 130 130 130 130 127 124 123 125 126 125 125 126 126 122 118 115 113 113 113 113 115 117 120 121 124 125 127 129 129 130 130 130 131 132 133 134 135 137 138 140 142 145 147 149 152 156 161 165 168 171 173 174 175 176 178 180
133 134 131 130 132 139 146 152 160 166 167 161 154 150 151 150 148 142 133 128 129 129 126 118 113 113 120 127 130 131 129 128 126 122 118 117 119 121 121 120 119 120 121 118 116 115 112 110 108 106 105 105 105 107 109 110 111 113 114 113 113 114 114 115 117 119 121 123 126 130 135 142 151 161 171 177 182 184 183 182 181 180 180 181 182 183
144 145 147 150 153 158 162 164 165 163 155 151 149 147 145 144 145 143 137 135 133 130 124 116 108 106 115 129 133 133 129 127 124 120 115 114 117 121 121 121 120 120 122 121 121 120 119 120 119 117 116 116 117 119 120 120 119 117 114 111 108 107 109 111 115 121 131 140 151 161 171 177 182 185 187 188 188 187 186 184 183 183 184 185 186 187
145 150 154 155 158 164 167 168 165 159 153 151 150 151 151 152 152 149 144 142 140 137 135 131 126 114 119 132 136 137 136 130 125 122 117 113 116 122 125 127 123 121 124 125 123 120 120 121 123 126 127 131 136 141 144 147 148 150 149 149 150 151 154 160 164 167 171 175 177 178 179 180 180 180 181 181 181 182 183 183 184 185 186 188 189 190
148 153 154 156 159 164 166 168 165 161 157 153 152 154 156 157 157 154 151 149 149 149 150 147 143 139 142 150 150 147 143 134 128 124 116 111 115 125 129 131 128 124 123 122 121 118 114 111 111 116 123 130 136 140 142 143 145 146 147 148 149 151 153 155 157 159 160 161 162 163 164 165 166 167 168 169 170 172 174 177 179 181 183 184 186 188
151 154 154 155 158 161 165 168 166 162 158 156 155 154 154 157 157 157 156 157 157 158 156 152 145 137 137 145 153 153 149 140 133 125 112 107 112 122 128 130 128 124 120 118 117 115 111 107 105 107 114 121 126 131 134 136 137 138 138 138 139 140 141 143 145 146 148 149 151 152 153 154 155 156 157 158 159 161 163 166 168 170 172 174 177 181
145 147 149 149 149 153 161 169 171 168 164 161 158 155 153 155 157 157 158 160 161 160 154 144 132 125 131 143 152 155 151 145 136 123 110 106 110 120 127 128 126 122 118 118 119 118 114 112 112 112 112 114 118 122 127 130 132 133 132 132 132 133 133 135 136 138 141 143 145 146 147 148 149 149 150 151 151 153 155 158 160 163 167 171 175 181
131 131 137 142 143 147 156 165 170 172 169 164 159 155 154 156 158 159 161 161 158 152 143 127 118 125 137 142 149 154 154 148 135 123 114 107 111 120 128 130 128 123 119 120 122 123 121 119 117 115 113 116 117 119 123 126 129 130 131 131 131 131 131 132 133 134 136 137 138 139 140 141 142 143 145 146 149 152 155 159 163 167 172 177 183 189
111 113 118 124 129 135 144 153 161 166 168 165 161 157 157 158 160 162 163 158 150 140 131 123 127 137 145 148 152 156 157 153 142 129 119 106 109 122 131 132 130 125 120 122 126 128 127 124 118 114 112 116 118 119 121 125 128 131 133 134 134 133 133 133 133 132 132 131 131 132 134 135 138 141 145 148 151 156 160 165 171 177 183 189 194 200
102 104 109 111 117 126 136 145 153 160 164 165 165 164 164 163 162 161 160 156 148 140 134 134 139 145 149 151 153 156 158 156 149 137 119 107 118 133 138 138 135 130 124 127 131 133 131 127 121 116 113 113 117 119 118 119 123 127 130 132 133 133 133 132 131 130 129 129 130 131 135 138 143 147 151 156 161 166 171 177 183 189 195 199 204 208
106 110 116 119 126 135 141 146 149 153 156 160 162 163 162 160 157 156 155 155 152 147 142 138 134 134 139 146 150 153 156 156 149 134 114 107 128 141 144 143 136 131 132 136 138 137 134 131 128 126 126 124 125 125 122 117 115 117 119 122 124 126 127 127 127 127 128 130 133 137 142 147 152 157 162 168 174 181 186 190 195 199 204 208 212 215
104 106 111 117 128 141 149 152 153 155 159 161 161 159 157 156 155 154 155 156 152 145 136 126 118 114 124 137 144 151 157 160 154 134 110 108 129 141 148 147 141 136 137 142 145 144 139 136 135 136 138 138 137 136 134 132 128 124 122 120 121 123 123 123 124 127 131 136 141 147 155 162 167 172 178 184 191 197 202 206 208 212 215 219 222 225
102 103 105 108 116 129 142 152 158 162 165 166 164 161 159 157 154 150 146 145 142 138 130 121 114 115 126 135 141 151 160 165 164 146 121 117 127 140 149 150 146 142 140 144 147 147 143 140 141 143 144 146 146 145 143 144 144 142 138 135 133 132 131 132 135 141 146 153 159 165 172 177 184 191 197 203 207 213 218 224 227 230 233 237 241 243
95 95 96 99 104 111 120 132 142 151 158 163 165 166 164 158 148 139 132 138 142 141 136 132 126 122 124 129 135 151 165 164 161 148 128 122 123 133 147 150 148 142 138 138 142 146 146 145 148 151 152 153 154 154 151 152 152 151 150 147 144 142 145 149 155 161 167 172 178 184 189 196 203 210 215 219 224 228 233 238 243 248 253 257 259 259
94 92 90 90 92 96 101 108 117 126 136 145 152 159 165 158 146 136 138 148 149 147 143 138 135 132 130 132 135 153 168 161 151 141 128 123 117 127 147 150 148 141 135 132 138 149 153 153 154 157 159 161 161 160 158 156 154 152 150 147 146 147 153 163 172 177 183 189 195 200 206 212 217 221 225 228 232 236 240 246 252 258 261 260 258 257
104 102 99 95 94 94 95 97 102 110 122 134 142 150 157 157 150 148 155 157 153 146 140 133 133 132 129 121 126 146 171 171 161 149 135 122 113 130 150 150 148 144 137 126 126 138 153 159 161 162 164 167 165 162 158 151 145 141 139 138 140 151 167 177 183 188 192 197 202 207 211 214 217 220 223 226 230 234 239 243 248 253 255 252 250 251
114 113 111 108 107 107 106 106 107 111 121 132 143 149 153 156 156 159 163 162 155 144 134 124 123 125 124 116 114 130 182 193 181 168 150 124 116 137 151 149 150 149 140 124 104 98 132 182 182 179 174 172 168 162 155 146 139 136 137 140 149 166 179 184 186 188 192 197 201 204 207 209 211 214 217 220 224 227 231 233 236 242 248 250 251 254
116 115 114 115 118 120 121 121 121 121 125 133 141 145 148 151 154 159 162 160 155 144 131 127 129 133 136 133 135 143 160 193 192 185 169 138 127 146 154 153 156 156 147 130 113 121 115 195 209 205 191 181 172 165 160 153 151 152 155 158 164 172 183 186 187 187 191 196 201 206 210 214 216 220 223 227 229 232 235 236 235 238 249 255 258 260
116 115 114 116 120 123 124 125 124 124 125 130 134 136 135 134 139 150 157 159 156 148 137 137 140 145 148 145 135 111 114 174 190 192 186 156 135 147 158 160 162 162 155 137 109 75 107 114 189 205 202 193 183 174 171 168 170 172 173 170 171 176 185 189 190 191 197 202 209 216 223 229 233 236 239 242 244 246 247 245 241 241 250 258 262 264
113 113 114 115 116 116 115 114 114 114 116 119 120 120 117 116 122 137 153 162 162 156 145 142 144 148 149 135 108 90 106 161 184 191 192 174 143 142 159 163 166 167 163 148 114 78 87 98 124 165 190 195 191 185 183 183 184 184 182 179 178 183 190 193 195 199 207 215 224 232 239 245 248 250 252 255 256 256 255 251 244 240 244 254 260 263
110 110 111 110 109 106 104 103 103 104 106 107 107 107 107 110 118 130 145 156 163 165 156 145 144 146 140 124 106 96 111 157 181 189 191 184 154 139 155 162 167 168 167 157 121 90 89 98 111 129 154 183 193 194 193 195 194 192 192 189 188 191 197 201 204 210 221 230 238 245 251 255 258 260 261 262 261 259 257 253 246 240 239 244 250 257
107 106 106 105 102 100 98 98 99 101 102 103 103 104 106 112 120 129 137 144 148 151 150 147 146 143 136 121 105 104 120 156 178 186 189 185 160 143 151 160 168 170 165 160 138 108 98 104 115 125 133 154 184 200 204 203 201 200 201 201 201 203 208 211 215 224 234 243 250 255 259 260 262 263 264 262 260 258 257 256 252 249 246 246 248 252
104 102 101 100 98 97 96 97 99 102 104 105 106 107 111 116 121 126 129 130 130 127 125 126 129 132 133 129 118 114 125 147 171 183 186 183 164 150 151 162 170 171 167 164 155 141 124 119 125 134 139 144 162 191 206 208 207 207 210 212 215 217 220 223 227 231 238 246 252 257 261 263 262 261 261 262 262 263 263 263 263 261 259 257 257 258
103 100 98 98 97 96 96 98 101 104 106 108 109 112 116 118 120 121 122 121 121 121 121 119 117 115 114 117 123 127 131 146 167 178 181 177 162 150 161 167 172 174 171 168 164 155 141 134 138 148 157 160 161 168 187 203 207 210 216 220 223 225 229 232 235 236 236 236 240 247 255 258 256 253 257 265 270 272 273 273 273 272 270 269 268 267
100 97 98 99 100 100 100 101 104 107 109 110 112 115 118 119 119 118 118 117 118 119 120 119 115 110 106 108 115 127 139 152 164 173 176 173 154 137 162 171 176 179 179 176 171 166 159 156 159 166 173 170 161 159 169 183 191 197 206 216 222 226 231 235 238 239 236 234 235 241 248 252 252 254 260 267 273 276 278 279 279 279 279 279 279 277
99 97 98 100 104 106 108 110 112 114 114 116 118 119 120 120 119 118 116 115 115 115 115 114 112 110 108 110 114 122 134 147 159 168 173 172 160 140 139 159 177 186 190 188 182 176 181 189 191 186 175 164 156 159 168 174 179 182 187 198 210 222 230 235 237 238 237 237 238 242 249 255 259 263 267 272 276 277 276 276 277 279 281 284 285 285
103 102 102 106 113 118 121 122 122 121 121 122 122 122 122 121 120 119 117 115 114 112 112 112 112 112 112 113 115 119 126 137 150 164 173 176 173 163 151 157 179 191 195 193 187 183 196 212 215 205 184 168 160 160 167 173 177 179 179 183 190 202 214 223 229 234 239 241 240 240 247 258 266 271 272 274 276 276 274 275 278 281 284 286 288 288
108 106 108 113 120 123 123 123 123 123 124 125 125 125 123 122 120 119 119 116 115 113 113 112 111 110 110 110 112 115 119 124 132 146 160 171 176 177 175 177 179 182 184 182 179 177 189 205 208 195 177 166 160 159 164 170 175 178 182 187 185 182 189 202 215 228 240 247 250 250 251 259 266 270 271 272 274 276 279 281 283 286 290 291 290 288
111 112 116 118 119 119 119 119 119 120 122 124 125 125 125 122 120 118 118 116 114 112 111 110 107 104 100 99 101 105 108 109 113 119 128 136 143 147 151 155 160 162 160 155 151 149 150 148 142 144 144 153 159 159 159 162 168 177 185 190 183 174 177 195 219 232 235 243 253 259 259 261 265 268 270 273 276 280 285 288 290 292 293 294 292 288
117 119 122 122 121 119 118 116 115 115 117 119 123 125 126 124 124 124 123 121 119 117 115 113 111 107 100 94 93 95 98 102 108 113 116 120 124 125 124 126 129 134 135 130 126 127 127 121 111 104 109 124 147 156 153 153 160 171 180 183 182 179 182 179 210 236 235 236 248 258 263 265 267 272 278 282 286 289 292 295 296 297 297 296 294 290
121 122 123 122 120 118 116 113 111 110 112 114 117 120 123 123 125 127 127 125 124 122 120 118 116 111 103 98 95 92 91 96 103 108 111 113 116 119 118 115 114 117 118 113 112 115 118 115 117 123 125 117 117 132 143 148 155 163 170 176 184 194 197 177 175 191 216 235 256 268 274 275 278 284 291 296 298 298 297 297 298 299 299 300 297 293
121 121 120 118 115 112 111 111 112 112 112 113 114 117 120 121 123 126 129 128 126 124 121 120 117 110 102 101 102 100 96 95 97 101 105 107 110 113 116 114 113 113 113 110 106 103 102 101 113 132 142 132 118 110 120 138 151 158 162 177 190 199 210 219 223 223 230 250 271 283 286 287 293 301 305 304 302 298 295 293 292 293 295 297 296 293
118 118 117 116 114 114 115 116 116 114 112 112 112 114 117 119 121 123 127 127 125 123 121 120 115 110 109 111 111 109 105 100 96 96 98 101 104 108 111 113 115 115 114 113 114 113 107 105 107 110 109 111 109 107 112 127 146 155 157 183 199 217 236 247 251 253 252 260 275 284 289 295 304 310 309 305 301 297 294 292 289 289 290 292 292 290
115 117 118 118 117 117 118 118 116 112 109 109 110 111 114 117 120 121 123 124 123 121 117 111 108 110 113 116 117 115 112 107 103 100 97 96 97 99 100 105 110 113 112 110 109 112 117 120 120 112 87 69 84 117 135 151 160 153 149 174 198 208 218 242 260 265 265 268 275 284 292 302 311 313 307 303 301 299 296 293 290 287 287 288 288 287
116 119 121 120 119 118 118 117 114 111 108 107 107 105 105 111 116 118 117 118 118 116 112 108 107 109 111 113 115 116 117 114 110 105 100 95 91 86 79 76 78 83 87 82 73 65 57 58 100 122 119 80 56 98 135 147 159 165 158 174 178 177 187 220 278 287 292 290 290 293 299 307 311 310 306 304 301 298 297 294 289 284 282 283 284 283
118 119 121 120 119 118 118 117 116 113 111 109 106 102 102 106 111 112 111 111 111 111 111 111 111 112 112 112 113 115 116 115 111 107 103 98 89 76 57 42 31 28 28 23 22 20 17 14 18 57 142 130 101 63 112 119 144 169 173 171 161 163 233 283 298 305 311 306 304 305 308 309 306 300 300 299 297 295 295 294 291 285 280 278 278 280
120 121 122 119 118 119 120 120 118 117 116 113 110 107 106 107 105 104 104 104 104 105 107 110 113 114 115 115 116 117 116 114 111 107 103 103 93 77 57 39 27 22 18 17 21 26 34 41 40 41 86 139 135 111 91 116 137 153 161 164 170 220 282 294 300 305 307 307 308 310 313 310 303 295 292 291 290 292 293 293 291 288 284 280 279 280
117 119 121 120 119 119 120 120 119 119 118 116 114 112 110 108 105 103 102 102 101 102 106 109 111 114 117 119 120 120 120 119 116 112 108 110 100 78 58 39 21 8 355 350 151 149 150 125 97 77 73 117 139 135 113 114 127 142 157 165 195 265 289 294 298 302 305 305 303 303 304 300 293 287 286 287 290 292 294 294 293 292 291 290 288 285